DLH411 KJFK-EDDM

Flight info

Callsign DLH411
Flight time N/A
Altitude 37000
Route BETTE DCT ACK DCT TUSKY N355C JOOPY/M085F380 DCT 49N050W 51N040W 53N030W 54N020W DCT DOGAL DCT BEXET/N0490F390 DCT OSGAR DCT MORAG DCT NUCHU L607 KONAN DCT KOK DCT MATUG DCT MOVUM T109 HAREM/N0460F350 T104 ELMOX/N0417F270 T104 ROKIL ROKIL1A
Aircraft A388/J-SADE2E3GHIJ3J4J5LM1OP2RWXYZ/LB1D1

Departure

Time N/A
Airport John F. Kennedy International Airport (KJFK)

Arrival

Time 2026-05-03 21:41
Airport Munich Airport (EDDM)
Time Latitude Longitude Altitude Speed Heading
2026-05-03 20:15 51.64498 -2.16734 38901 ft 493 kts 122°
2026-05-03 20:15 51.61107 -2.07205 38900 ft 493 kts 122°
2026-05-03 20:16 51.57695 -1.97653 38898 ft 492 kts 122°
2026-05-03 20:16 51.54275 -1.88110 38880 ft 492 kts 122°
2026-05-03 20:17 51.50846 -1.78582 38886 ft 493 kts 123°
2026-05-03 20:17 51.47645 -1.68816 38889 ft 497 kts 115°
2026-05-03 20:18 51.45571 -1.58191 38896 ft 502 kts 104°
2026-05-03 20:18 51.44107 -1.47229 38899 ft 503 kts 104°
2026-05-03 20:19 51.42618 -1.36342 38901 ft 503 kts 105°
2026-05-03 20:19 51.41098 -1.25387 38904 ft 504 kts 105°
2026-05-03 20:20 51.39671 -1.14354 38903 ft 506 kts 101°
2026-05-03 20:20 51.39036 -1.03111 38902 ft 507 kts 97°
2026-05-03 20:21 51.38462 -0.91847 38899 ft 507 kts 97°
2026-05-03 20:21 51.37872 -0.80674 38904 ft 507 kts 97°
2026-05-03 20:22 51.37268 -0.69418 38910 ft 507 kts 98°
2026-05-03 20:22 51.36654 -0.58174 38912 ft 507 kts 98°
2026-05-03 20:23 51.36030 -0.46924 38912 ft 507 kts 98°
2026-05-03 20:23 51.35394 -0.35668 38911 ft 507 kts 98°
2026-05-03 20:24 51.34748 -0.24433 38909 ft 507 kts 98°
2026-05-03 20:24 51.34091 -0.13201 38905 ft 507 kts 98°
2026-05-03 20:25 51.33538 -0.03879 38917 ft 506 kts 98°
2026-05-03 20:25 51.32565 0.09075 38969 ft 503 kts 102°
2026-05-03 20:26 51.31522 0.20119 38983 ft 502 kts 102°
2026-05-03 20:26 51.30664 0.29261 38999 ft 502 kts 102°
2026-05-03 20:27 51.29610 0.40291 39011 ft 501 kts 102°
2026-05-03 20:27 51.28560 0.51144 39019 ft 499 kts 102°
2026-05-03 20:28 51.27488 0.62107 38999 ft 499 kts 102°
2026-05-03 20:28 51.26407 0.73053 38968 ft 498 kts 102°
2026-05-03 20:29 51.25318 0.83972 38947 ft 498 kts 102°
2026-05-03 20:29 51.24226 0.94813 38914 ft 497 kts 102°
2026-05-03 20:30 51.23119 1.05700 38916 ft 497 kts 102°
2026-05-03 20:30 51.22232 1.14346 38916 ft 498 kts 103°
2026-05-03 20:31 51.21272 1.23643 38917 ft 498 kts 103°
2026-05-03 20:31 51.20373 1.32272 38919 ft 498 kts 103°
2026-05-03 20:32 51.19593 1.39703 38921 ft 499 kts 103°
2026-05-03 20:32 51.18954 1.45760 38913 ft 499 kts 103°
2026-05-03 20:33 51.18387 1.51111 38922 ft 499 kts 103°
2026-05-03 20:33 51.17800 1.56625 38922 ft 499 kts 103°
2026-05-03 20:34 51.17266 1.61613 38921 ft 499 kts 103°
2026-05-03 20:34 51.16793 1.66021 38925 ft 499 kts 103°
2026-05-03 20:35 51.16261 1.70949 38922 ft 499 kts 103°
2026-05-03 20:35 51.15297 1.79843 38926 ft 499 kts 103°
2026-05-03 20:36 51.14294 1.89021 38938 ft 499 kts 103°
2026-05-03 20:36 51.13110 1.99908 38938 ft 499 kts 101°
2026-05-03 20:37 51.12481 2.10950 38936 ft 501 kts 98°
2026-05-03 20:37 51.11905 2.22010 38934 ft 501 kts 98°
2026-05-03 20:38 51.11307 2.32990 38915 ft 501 kts 98°
2026-05-03 20:38 51.10691 2.44036 38917 ft 501 kts 98°
2026-05-03 20:39 51.10063 2.55091 38912 ft 501 kts 98°
2026-05-03 20:39 51.09238 2.66091 38920 ft 499 kts 104°
2026-05-03 20:40 51.07562 2.76758 38920 ft 497 kts 108°
2026-05-03 20:40 51.05813 2.87307 38925 ft 497 kts 108°
2026-05-03 20:41 51.04049 2.97944 38929 ft 497 kts 108°
2026-05-03 20:41 51.02274 3.08547 38929 ft 498 kts 108°
2026-05-03 20:42 51.00483 3.19160 38928 ft 498 kts 108°
2026-05-03 20:42 50.98679 3.29785 38923 ft 498 kts 108°
2026-05-03 20:43 50.96871 3.40374 38930 ft 497 kts 108°
2026-05-03 20:43 50.95059 3.50913 38927 ft 496 kts 108°
2026-05-03 20:44 50.93240 3.61437 38929 ft 496 kts 108°
2026-05-03 20:44 50.91408 3.71971 38927 ft 495 kts 108°
2026-05-03 20:45 50.89581 3.82414 38937 ft 495 kts 108°
2026-05-03 20:45 50.87735 3.92905 38941 ft 494 kts 109°
2026-05-03 20:46 50.85877 4.03399 38948 ft 494 kts 109°
2026-05-03 20:46 50.84014 4.13861 38952 ft 494 kts 109°
2026-05-03 20:47 50.82137 4.24340 38955 ft 494 kts 109°
2026-05-03 20:47 50.80257 4.34779 38959 ft 494 kts 109°
2026-05-03 20:48 50.78380 4.45137 38957 ft 493 kts 109°
2026-05-03 20:48 50.76486 4.55532 38956 ft 493 kts 109°
2026-05-03 20:49 50.74578 4.65943 38957 ft 493 kts 109°
2026-05-03 20:49 50.72658 4.76364 38942 ft 494 kts 109°
2026-05-03 20:50 50.70743 4.86700 38948 ft 494 kts 109°
2026-05-03 20:50 50.68806 4.97099 38951 ft 494 kts 109°
2026-05-03 20:51 50.66865 5.07460 38957 ft 494 kts 109°
2026-05-03 20:51 50.64909 5.17842 38958 ft 494 kts 109°
2026-05-03 20:52 50.62945 5.28209 38968 ft 494 kts 110°
2026-05-03 20:52 50.60979 5.38527 38960 ft 495 kts 110°
2026-05-03 20:53 50.58992 5.48905 38969 ft 495 kts 110°
2026-05-03 20:53 50.56993 5.59284 38958 ft 495 kts 110°
2026-05-03 20:54 50.54988 5.69639 38962 ft 496 kts 110°
2026-05-03 20:54 50.51953 5.85206 38973 ft 496 kts 110°
2026-05-03 20:55 50.49918 5.95569 38977 ft 497 kts 110°
2026-05-03 20:55 50.47875 6.05925 38953 ft 497 kts 111°
2026-05-03 20:56 50.45827 6.16245 38953 ft 499 kts 111°
2026-05-03 20:56 50.43749 6.26668 38965 ft 500 kts 111°
2026-05-03 20:57 50.41657 6.37096 38973 ft 501 kts 112°
2026-05-03 20:57 50.39471 6.47465 38976 ft 501 kts 111°
2026-05-03 20:58 50.37351 6.57895 38952 ft 503 kts 111°
2026-05-03 20:58 50.35198 6.68326 38972 ft 503 kts 111°
2026-05-03 20:59 50.33021 6.78753 38981 ft 504 kts 111°
2026-05-03 20:59 50.30843 6.89128 38995 ft 505 kts 111°
2026-05-03 21:00 50.29372 6.96098 39008 ft 504 kts 111°
2026-05-03 21:00 50.26441 7.09926 39008 ft 503 kts 111°
2026-05-03 21:01 50.24232 7.20282 39004 ft 502 kts 111°
2026-05-03 21:01 50.22013 7.30637 38999 ft 502 kts 111°
2026-05-03 21:02 50.19788 7.40969 38995 ft 501 kts 111°
2026-05-03 21:02 50.17556 7.51275 38978 ft 500 kts 111°
2026-05-03 21:03 50.15336 7.61478 38978 ft 500 kts 111°
2026-05-03 21:03 50.13087 7.71757 38978 ft 500 kts 112°
2026-05-03 21:04 50.10830 7.82027 38985 ft 500 kts 111°
2026-05-03 21:04 50.08564 7.92290 38990 ft 501 kts 112°
2026-05-03 21:05 50.06289 8.02540 38997 ft 501 kts 112°
2026-05-03 21:05 50.04021 8.12707 38995 ft 501 kts 112°
2026-05-03 21:06 50.01731 8.22927 38989 ft 500 kts 112°
2026-05-03 21:06 49.99448 8.33067 38989 ft 500 kts 112°
2026-05-03 21:07 49.97136 8.43282 39001 ft 500 kts 112°
2026-05-03 21:07 49.94616 8.53310 38996 ft 497 kts 118°
2026-05-03 21:08 49.91334 8.62634 38988 ft 495 kts 123°
2026-05-03 21:08 49.87908 8.71900 38985 ft 495 kts 123°
2026-05-03 21:09 49.84488 8.81151 39000 ft 494 kts 123°
2026-05-03 21:09 49.81053 8.90379 38999 ft 494 kts 123°
2026-05-03 21:10 49.77614 8.99591 38997 ft 494 kts 123°
2026-05-03 21:10 49.74164 9.08809 38997 ft 494 kts 123°
2026-05-03 21:11 49.70709 9.18003 39005 ft 495 kts 123°
2026-05-03 21:11 49.67266 9.27137 39005 ft 495 kts 123°
2026-05-03 21:12 49.63788 9.36328 39013 ft 495 kts 124°
2026-05-03 21:12 49.59862 9.44981 39011 ft 491 kts 133°
2026-05-03 21:13 49.55353 9.52866 39005 ft 490 kts 135°
2026-05-03 21:13 49.50857 9.60730 38887 ft 487 kts 135°
2026-05-03 21:14 49.49381 9.63313 38740 ft 483 kts 135°
2026-05-03 21:14 49.46434 9.68460 38016 ft 478 kts 135°
2026-05-03 21:14 49.44980 9.70995 37623 ft 476 kts 135°
2026-05-03 21:14 49.42801 9.74790 37279 ft 470 kts 135°
2026-05-03 21:15 49.40640 9.78545 36686 ft 469 kts 135°
2026-05-03 21:15 49.38480 9.82291 36249 ft 469 kts 135°
2026-05-03 21:15 49.36302 9.86058 36037 ft 472 kts 135°
2026-05-03 21:15 49.34129 9.89810 35621 ft 470 kts 135°
2026-05-03 21:16 49.31976 9.93520 34976 ft 470 kts 135°
2026-05-03 21:16 49.29796 9.97271 34331 ft 470 kts 135°
2026-05-03 21:16 49.27617 10.01017 33583 ft 469 kts 135°
2026-05-03 21:16 49.25453 10.04732 32741 ft 468 kts 135°
2026-05-03 21:17 49.23312 10.08404 31981 ft 467 kts 135°
2026-05-03 21:17 49.21166 10.12079 31524 ft 459 kts 135°
2026-05-03 21:17 49.19061 10.15684 31232 ft 450 kts 135°
2026-05-03 21:17 49.16987 10.19230 30702 ft 446 kts 136°
2026-05-03 21:18 49.14925 10.22750 30162 ft 442 kts 135°
2026-05-03 21:18 49.12876 10.26212 29611 ft 436 kts 136°
2026-05-03 21:18 49.10807 10.29557 29103 ft 430 kts 137°
2026-05-03 21:18 49.08744 10.32840 28582 ft 424 kts 137°
2026-05-03 21:19 49.06718 10.36062 28086 ft 419 kts 137°
2026-05-03 21:19 49.04716 10.39258 27578 ft 414 kts 137°
2026-05-03 21:19 49.02740 10.42417 27082 ft 409 kts 137°
2026-05-03 21:19 49.00783 10.45549 26608 ft 406 kts 137°
2026-05-03 21:20 48.98872 10.48601 26115 ft 402 kts 137°
2026-05-03 21:20 48.96944 10.51675 25616 ft 399 kts 137°
2026-05-03 21:20 48.95034 10.54715 25151 ft 396 kts 137°
2026-05-03 21:20 48.93134 10.57737 24655 ft 393 kts 137°
2026-05-03 21:21 48.91248 10.60733 24173 ft 391 kts 136°
2026-05-03 21:21 48.89369 10.63718 23682 ft 389 kts 136°
2026-05-03 21:21 48.87499 10.66687 23154 ft 387 kts 136°
2026-05-03 21:21 48.85644 10.69627 22679 ft 383 kts 136°
2026-05-03 21:22 48.83809 10.72533 22190 ft 380 kts 136°
2026-05-03 21:22 48.81981 10.75424 21710 ft 377 kts 136°
2026-05-03 21:22 48.80170 10.78283 21234 ft 374 kts 136°
2026-05-03 21:22 48.78369 10.81114 20744 ft 372 kts 136°
2026-05-03 21:23 48.76573 10.83930 20278 ft 370 kts 136°
2026-05-03 21:23 48.74808 10.86695 19804 ft 368 kts 136°
2026-05-03 21:23 48.73033 10.89473 19330 ft 366 kts 136°
2026-05-03 21:23 48.71259 10.92247 18859 ft 364 kts 136°
2026-05-03 21:24 48.69504 10.94991 18382 ft 362 kts 136°
2026-05-03 21:24 48.67754 10.97722 17875 ft 359 kts 136°
2026-05-03 21:24 48.66042 11.00387 17416 ft 355 kts 137°
2026-05-03 21:24 48.64329 11.03050 16943 ft 351 kts 137°
2026-05-03 21:25 48.62633 11.05686 16482 ft 348 kts 137°
2026-05-03 21:25 48.60947 11.08302 16031 ft 345 kts 137°
2026-05-03 21:25 48.59282 11.10884 15569 ft 341 kts 137°
2026-05-03 21:25 48.57556 11.13298 15113 ft 335 kts 145°
2026-05-03 21:26 48.55670 11.15307 14681 ft 330 kts 150°
2026-05-03 21:26 48.53758 11.17217 14244 ft 327 kts 149°
2026-05-03 21:26 48.51905 11.19100 13793 ft 324 kts 148°
2026-05-03 21:26 48.50152 11.21229 13354 ft 323 kts 141°
2026-05-03 21:27 48.48503 11.23503 12928 ft 318 kts 141°
2026-05-03 21:27 48.46867 11.25728 12515 ft 316 kts 142°
2026-05-03 21:27 48.45231 11.27935 12095 ft 314 kts 142°
2026-05-03 21:27 48.43607 11.30119 11670 ft 313 kts 140°
2026-05-03 21:28 48.42265 11.32696 11241 ft 317 kts 119°
2026-05-03 21:28 48.41672 11.35902 10816 ft 321 kts 96°
2026-05-03 21:28 48.41848 11.39247 10425 ft 321 kts 84°
2026-05-03 21:28 48.42138 11.42515 10305 ft 307 kts 85°
2026-05-03 21:29 48.42393 11.45621 10131 ft 299 kts 85°
2026-05-03 21:29 48.42637 11.48706 10001 ft 295 kts 85°
2026-05-03 21:29 48.42877 11.51770 9974 ft 296 kts 85°
2026-05-03 21:29 48.43119 11.54866 9644 ft 300 kts 85°
2026-05-03 21:30 48.43364 11.58001 9340 ft 299 kts 85°
2026-05-03 21:30 48.43607 11.61082 9038 ft 293 kts 85°
2026-05-03 21:30 48.43844 11.64094 8732 ft 287 kts 85°
2026-05-03 21:30 48.44076 11.67059 8447 ft 282 kts 85°
2026-05-03 21:31 48.44303 11.69975 8167 ft 277 kts 85°
2026-05-03 21:31 48.44521 11.72808 7896 ft 273 kts 84°
2026-05-03 21:31 48.44738 11.75624 7607 ft 269 kts 84°
2026-05-03 21:31 48.44953 11.78417 7255 ft 268 kts 84°
2026-05-03 21:32 48.45166 11.81211 7024 ft 273 kts 84°
2026-05-03 21:32 48.45387 11.84097 6744 ft 280 kts 83°
2026-05-03 21:32 48.45609 11.87017 6447 ft 279 kts 83°
2026-05-03 21:32 48.45830 11.89922 6132 ft 279 kts 83°
2026-05-03 21:33 48.46051 11.92832 5829 ft 282 kts 83°
2026-05-03 21:33 48.46267 11.95757 5573 ft 277 kts 83°
2026-05-03 21:33 48.46462 11.98579 5458 ft 266 kts 83°
2026-05-03 21:33 48.46647 12.01263 5342 ft 256 kts 83°
2026-05-03 21:34 48.46824 12.03907 5164 ft 253 kts 83°
2026-05-03 21:34 48.47000 12.06537 5029 ft 249 kts 83°
2026-05-03 21:34 48.47172 12.09144 4995 ft 251 kts 83°
2026-05-03 21:34 48.47082 12.11754 4995 ft 252 kts 108°
2026-05-03 21:35 48.46194 12.13988 4996 ft 250 kts 138°
2026-05-03 21:35 48.44708 12.15266 5000 ft 246 kts 169°
2026-05-03 21:35 48.43015 12.15462 4988 ft 247 kts 180°
2026-05-03 21:35 48.41290 12.15511 4985 ft 247 kts 190°
2026-05-03 21:36 48.39790 12.14473 4992 ft 240 kts 227°
2026-05-03 21:36 48.39023 12.12333 5000 ft 233 kts 258°
2026-05-03 21:36 48.38782 12.09939 4988 ft 230 kts 265°
2026-05-03 21:36 48.38636 12.07564 4716 ft 226 kts 263°
2026-05-03 21:37 48.38452 12.05248 4424 ft 218 kts 264°
2026-05-03 21:37 48.38284 12.03018 4138 ft 211 kts 264°
2026-05-03 21:37 48.38119 12.00864 3870 ft 203 kts 265°
2026-05-03 21:37 48.37961 11.98798 3634 ft 189 kts 265°
2026-05-03 21:38 48.37820 11.96969 3400 ft 163 kts 265°
2026-05-03 21:38 48.37699 11.95385 3192 ft 142 kts 265°
2026-05-03 21:38 48.37591 11.93958 3012 ft 135 kts 266°
2026-05-03 21:38 48.37485 11.92567 2833 ft 136 kts 266°
2026-05-03 21:39 48.37377 11.91147 2658 ft 136 kts 266°
2026-05-03 21:39 48.37268 11.89731 2476 ft 137 kts 266°
2026-05-03 21:39 48.37158 11.88286 2303 ft 140 kts 265°
2026-05-03 21:39 48.37041 11.86822 2084 ft 141 kts 263°
2026-05-03 21:40 48.36922 11.85358 1883 ft 141 kts 264°
2026-05-03 21:40 48.36819 11.83905 1711 ft 141 kts 264°
2026-05-03 21:40 48.36711 11.82457 1550 ft 139 kts 264°
2026-05-03 21:40 48.36601 11.81080 1482 ft 117 kts 264°
2026-05-03 21:41 48.36532 11.80083 1487 ft 80 kts 263°
2026-05-03 21:41 48.36482 11.79440 1484 ft 32 kts 263°
2026-05-03 21:41 48.36467 11.79240 1490 ft 18 kts 263°
2026-05-03 21:41 48.36448 11.79051 1477 ft 18 kts 250°
2026-05-03 21:42 48.36384 11.78876 1475 ft 20 kts 231°
2026-05-03 21:42 48.36299 11.78707 1479 ft 21 kts 233°
2026-05-03 21:42 48.36232 11.78571 1475 ft 13 kts 233°
2026-05-03 21:42 48.36165 11.78476 1479 ft 13 kts 189°
2026-05-03 21:43 48.36073 11.78487 1487 ft 14 kts 172°
2026-05-03 21:43 48.36034 11.78565 1475 ft 10 kts 81°
2026-05-03 21:43 48.36046 11.78692 1490 ft 15 kts 82°
2026-05-03 21:43 48.36059 11.78868 1486 ft 19 kts 84°
2026-05-03 21:44 48.36075 11.79081 1487 ft 22 kts 83°
2026-05-03 21:44 48.36088 11.79242 1481 ft 1 kts 83°
2026-05-03 21:44 48.36089 11.79285 1480 ft 7 kts 105°
2026-05-03 21:44 48.36052 11.79326 1481 ft 9 kts 174°
2026-05-03 21:45 48.35970 11.79338 1477 ft 14 kts 173°
2026-05-03 21:45 48.35898 11.79412 1481 ft 13 kts 119°
2026-05-03 21:45 48.35814 11.79460 1482 ft 15 kts 173°
2026-05-03 21:45 48.35696 11.79482 1487 ft 19 kts 173°
2026-05-03 21:46 48.35558 11.79505 1476 ft 21 kts 174°
2026-05-03 21:46 48.35414 11.79529 1484 ft 22 kts 173°
2026-05-03 21:46 48.35275 11.79554 1483 ft 20 kts 173°
2026-05-03 21:46 48.35152 11.79575 1486 ft 13 kts 173°
2026-05-03 21:47 48.35097 11.79647 1475 ft 12 kts 83°
2026-05-03 21:47 48.35109 11.79795 1490 ft 16 kts 83°
2026-05-03 21:47 48.35123 11.79982 1484 ft 18 kts 83°
2026-05-03 21:47 48.35135 11.80135 1488 ft 9 kts 83°
2026-05-03 21:48 48.35163 11.80194 1479 ft 5 kts 357°
2026-05-03 21:48 48.35215 11.80184 1488 ft 8 kts 353°
2026-05-03 21:48 48.35245 11.80150 1483 ft 7 kts 296°
2026-05-03 21:48 48.35248 11.80093 1490 ft 0 kts 261°
2026-05-03 21:49 48.35246 11.80068 1490 ft 4 kts 263°
2026-05-03 21:49 48.35245 11.80051 1490 ft 1 kts 263°
2026-05-03 21:49 48.35244 11.80046 1490 ft 0 kts 263°
2026-05-03 21:49 48.35244 11.80045 1490 ft 0 kts 263°